Weather in Danilovo

Russia / Vladimir Oblast     55°24′30″N   41°24′27″E
temp.,
°C
wind,
m/s
gust,
m/s
humid.,
%
clouds,
%
prec.,
mm/h
press.,
hPa
HPBL,
m
27 september, mon
mon2700:00+8nne4994100 0.1 1012455
03:00+8n51194100 0.1 1014508
06:00+8n41191100 0.0 1015427
09:00+8n4994100 0.1 1016575
12:00+10n5984100 0.5 1017907
15:00+9n51091100 1.1 1018684
18:00+8nne51093100 0.5 1020785
21:00+6ne5893100 2.4 1022998
28 september, tue
tue2800:00+5ne5990100 0.2 1024918
03:00+5ne4893100 0.2 1025902
06:00+5ne4891100 0.1 1027829
09:00+6ene588252 0.1 1029784
12:00+8ene56595 0.0 10301067
15:00+10ne464765 0.0 10301200
18:00+5nne35675 0.0 103298
21:00+3nne26775 0.0 1033112
29 september, wed
wed2900:00+2nne22820 0.0 103437
03:00+2n23833 0.0 103440
06:00+1n248775 0.0 103565
09:00+6nne356570 0.0 1035322
12:00+10nne235032 0.0 1034957
15:00+11nne234827 0.0 10341195
18:00+6nne227014 0.0 103410
21:00+5nne22795 0.0 103516
30 september, thu
thu3000:00+4nne128547 0.0 103511
03:00+3n118786 0.0 103510
06:00+3nnw119218 0.0 103610
09:00+8n127299 0.0 1036180
12:00+11nnw11586 0.0 1035586
15:00+13nw235278 0.0 10351396
18:00+10wnw2368100 0.0 103452
21:00+7wnw238638 0.0 103544
1 october, fri
fri100:00+7wnw22945 0.0 103534
03:00+6wnw23957 0.0 103561
06:00+6wnw249535 0.0 103576
09:00+11wnw357613 0.0 1035254
12:00+14nw235843 0.0 10351178
15:00+15nw335696 0.0 10341346
18:00+11nw237317 0.0 103458
21:00+8wnw22846 0.0 103521